Regional Weather Roundup
Issued by NWS New Orleans/Baton Rouge, LA

Home | Current Version | Previous Version | Text Only | Print | Product List | Glossary Off
Versions: 1 2 3 4 5 6 7 8 9 10 11 12 13 14 15 16 17 18 19 20 21 22 23 24 25 26 27 28 29 30 31 32 33 34 35 36 37 38 39 40 41 42 43 44 45 46 47 48 49 50

686
ASUS44 KLIX 292101
RWRLIX
NEW ORLEANS REGIONAL WEATHER ROUNDUP
NATIONAL WEATHER SERVICE NEW ORLEANS LA
400 PM CDT MON SEP 29 2014

NOTE: "FAIR" INDICATES FEW OR NO CLOUDS BELOW 12,000 FEET WITH NO
      SIGNIFICANT WEATHER AND/OR OBSTRUCTIONS TO VISIBILITY.
      SKY/WX - SKY CONDITION AND SIGNIFICANT WEATHER.
      TMP - AIR TEMPERATURE.     DP    - DEWPOINT TEMPERATURE.
      RH  - RELATIVE HUMIDITY.   PRES  - PRESSURE.
      HI  - HEAT INDEX.          WCI   - WIND CHILL INDEX.

*  THESE STATIONS ARE NOT NWS OR FAA STATIONS AND ARE NOT UNDER
   NWS QUALITY CONTROL.

LAZ038-040-048-061>063-065>067-069-292200-
SOUTHEAST LOUISIANA

CITY           SKY/WX    TMP DP  RH WIND       PRES   REMARKS
N.O. AUDUBON   NOT AVBL
N.O. INTL ARPT MOSUNNY   84  70  62 NE7       29.86F
N.O. LAKEFRONT MOSUNNY   81  72  74 NW7       29.87F
N.O. DOWNTOWN*   N/A     82  68  61 N3        29.87F
SLIDELL        PTSUNNY   82  71  69 N6        29.86S
BATON ROUGE    MOSUNNY   86  72  62 NE10      29.86F
BOOTHVILLE     CLOUDY    80  74  81 N7        29.87S
BELLE CHASSE   MOSUNNY   85  70  60 N7        29.86F
BOGALUSA*        N/A     87  70  57 NE5       29.88F
GALLIANO*      NOT AVBL
NEW ROADS*       N/A     85  72  64 NE7       29.87S
GONZALES*      CLOUDY    83  76  79 E5        29.86S
HAMMOND*       NOT AVBL
HOUMA*         MOSUNNY  N/A N/A N/A NE12      29.86S
PORT FOURCHON* MOCLDY    82  73  74 NE9       29.89S

$$

MSZ070-080>082-292200-
SOUTHERN MISSISSIPPI

CITY           SKY/WX    TMP DP  RH WIND       PRES   REMARKS
MCCOMB         MOSUNNY   84  68  58 E7        29.88F
GULFPORT       PTSUNNY   82  71  69 N7        29.85S
BILOXI         PTSUNNY   81  72  75 NE8       29.85F
PASCAGOULA     CLOUDY    81  73  76 N8        29.85F
STENNIS ARPT*  MOSUNNY   84  68  58 N6        29.86S

$$

COASTAL OBSERVATIONS
LAKE AND NEARSHORE STATIONS

STATION/POSITION TIME  TEMP    WIND        PRES    WAVE
                       AIR SEA DIR/SP/G            HT/PER
                 (UTC) (F)     (DEG/KT/KT) (MB)    (FT/S)
PASCAGOULA       2000   83     330/  7/ 10 1010.3
WAVELAND YACHT   2000   82      30/ 12/ 14 1010.4
GRAND ISLE       2000   82 81   20/  7/ 10 1011.8
SOUTHWEST PASS   2000   87 87   10/ 10/ 12 1011.2
NEW CANAL        2000   78 77  360/  5/  5 1011.9
SHELL BEACH      2000   78 74  310/  4/  6 1011.3

OFFSHORE STATIONS

STATION/POSITION TIME  TEMP    WIND        PRES    WAVE
                       AIR SEA DIR/SP/G            HT/PER
                 (UTC) (F)     (DEG/KT/KT) (MB)    (FT/S)
64 S DAUPHIN ISL 1952   79 83  360/ 10/ 12 1010.8    3/ 6

$$




USA.gov is the U.S. government's official web portal to all federal, state and local government web resources and services.